#timestamp,LO_Frequency,Hit 
1499313615.5,286047006.4,N
1499313635.3,286047006.8,N
1499313655.2,286047006.8,N
1499313675.9,286047007.3,N
1499313695.7,286047006.9,N
1499313715.6,286047007.1,N
1499313735.4,286047006.8,N
1499313755.2,286047008.7,N
1499313775.0,286047008.4,N
1499313775.9,286047008.4,N
1499313795.8,286047006.3,N
1499313815.6,286047010.4,N
1499313835.4,286047009.6,N
1499313855.3,286047012.3,N
1499313875.1,286047009.6,N
1499313895.8,286047007.7,N
1499313915.7,286047006.3,N
1499313935.5,286047006.1,N
1499313955.3,286047008.5,N
1499313975.2,286047008.0,N
1499313995.9,286047008.9,N
1499314015.7,286047008.5,N
1499314035.6,286047010.0,N
1499314055.4,286047008.5,N
1499314075.2,286047008.0,N
1499314095.0,286047006.7,N
1499314096.0,286047006.7,N
1499314115.8,286047007.3,N
1499314135.6,286047007.3,N
1499314155.4,286047004.9,N
1499314175.3,286047004.9,N
1499314195.1,286047005.2,N
1499314215.8,286047007.6,N
1499314235.7,286047007.5,N
1499314255.5,286047006.5,N
1499314275.3,286047006.2,N
1499314295.2,286047007.1,N
1499314315.9,286047007.0,N
1499314335.7,286047007.6,N
1499314355.6,286047005.5,N
1499314375.4,286047003.2,N
1499314395.2,286047004.6,N
1499314415.1,286047002.9,N
1499314416.0,286047002.9,N
1499314435.8,286047005.9,N
1499314455.6,286047003.2,N
1499314475.4,286047003.1,N
1499314495.3,286047003.5,N
1499314515.1,286047002.0,N
1499314535.8,286047002.2,N
1499314555.7,286047003.0,N
1499314575.5,286047005.8,N
1499314595.3,286047003.2,N
1499314615.2,286047003.5,N
1499314635.9,286047004.4,N
1499314655.7,286047001.8,N
1499314675.6,286047000.2,N
1499314695.4,286047002.8,N
1499314715.2,286047000.2,N
1499314735.1,286047001.5,N
1499314736.0,286047001.5,N
1499314755.8,286047004.0,N
1499314775.6,286047002.1,N
1499314795.5,286047002.0,N
1499314815.3,286047002.3,N
1499314835.1,286047000.4,N
1499314855.8,286047000.2,N
1499314875.7,286046999.7,N
1499314895.5,286047001.7,N
1499314915.3,286047002.5,N
1499314935.2,286047000.9,N
1499314955.0,286047000.0,N
1499314955.9,286047000.0,N
1499314975.7,286047000.1,N
1499314995.6,286047002.6,N
1499315015.4,286047004.0,N
1499315035.2,286047002.5,N
1499315055.1,286047002.5,N
1499315056.0,286047002.5,N
1499315075.8,286047000.1,N
1499315095.6,286047001.9,N
1499315115.5,286047005.7,N
1499315135.3,286047005.4,N
1499315155.1,286047002.9,N
1499315175.9,286047006.0,N
1499315195.7,286047001.3,N
1499315215.5,286047003.0,N
1499315235.3,286047005.5,N
1499315255.2,286047003.0,N
1499315275.0,286047001.7,N
1499315275.9,286047001.7,N
1499315295.7,286047004.2,N
1499315315.6,286047001.8,N
1499315335.4,286047002.5,N
1499315355.2,286047003.8,N
1499315375.1,286047001.9,N
1499315376.0,286047001.9,N
1499315395.8,286047004.4,N
1499315415.6,286047001.9,N
1499315435.5,286047001.8,N
1499315455.3,286047002.0,N
1499315475.1,286047001.4,N
1499315495.9,286047002.1,N
1499315515.7,286047003.0,N
1499315535.5,286047004.5,N
1499315555.4,286047005.9,N
1499315575.2,286047003.6,N
1499315595.0,286047003.7,N
1499315595.9,286047003.7,N
1499315615.7,286047004.2,N
1499315635.6,286047004.5,N
1499315655.4,286047003.1,N
1499315675.2,286047005.9,N
1499315695.1,286047003.0,N
1499315696.0,286047003.0,N
1499315715.8,286047006.0,N
1499315735.6,286047005.9,N
1499315755.5,286047003.4,N
1499315775.3,286047002.9,N
1499315795.1,286047005.0,N
1499315815.9,286047006.5,N
1499315835.7,286047006.8,N
1499315855.5,286047005.6,N
1499315875.4,286047003.5,N
1499315895.2,286047002.2,N
1499315915.0,286047003.1,N
1499315915.9,286047003.1,N
1499315935.8,286047001.5,N
1499315955.6,286047003.1,N
1499315975.4,286047008.7,N
1499315995.2,286047005.0,N
1499316015.1,286047003.2,N
1499316016.0,286047003.2,N
1499316035.8,286047005.1,N
1499316055.6,286047002.9,N
1499316075.5,286047001.7,N
1499316095.3,286047003.6,N
1499316115.1,286047004.1,N
1499316135.9,286047001.5,N
1499316155.7,286047003.2,N
1499316175.5,286047004.8,N
1499316195.4,286047003.1,N
1499316215.2,286047003.9,N
1499316235.0,286047001.5,N
1499316235.9,286047001.5,N
1499316255.8,286047002.0,N
1499316275.6,286047002.0,N
1499316295.4,286047003.4,N
1499316315.3,286047005.5,N
1499316335.1,286047003.3,N
1499316336.0,286047003.3,N
1499316355.8,286047003.3,N
1499316375.7,286047003.6,N
1499316395.5,286047001.4,N
1499316415.3,286047002.4,N
1499316435.1,286047000.0,N
1499316455.9,286047002.1,N
1499316475.7,286047001.7,N
1499316495.5,286047001.7,N
1499316515.4,286047004.0,N
1499316535.2,286047004.3,N
1499316555.0,286047001.6,N
1499316555.9,286047001.6,N
1499316575.8,286047002.3,N
1499316595.6,286047000.1,N
1499316615.4,286046998.8,N
1499316635.3,286046997.0,N
1499316655.1,286046999.1,N
1499316656.0,286046999.1,N
1499316675.8,286046998.5,N
1499316695.7,286047000.6,N
1499316715.5,286046998.1,N
1499316735.3,286046999.7,N
1499316755.2,286047002.0,N
1499316775.9,286047000.0,N
1499316795.7,286047000.3,N
1499316815.6,286047001.5,N
1499316835.4,286047004.4,N
1499316855.2,286047004.3,N
1499316875.0,286047000.1,N
1499316875.9,286047000.1,N
1499316895.8,286047002.7,N
1499316915.6,286047002.7,N
1499316935.4,286047000.0,N
1499316955.3,286046999.7,N
1499316975.1,286046999.9,N
1499316995.8,286047000.6,N
1499317015.7,286047001.1,N
1499317035.5,286046998.1,N
1499317055.3,286047000.2,N
1499317075.2,286047000.2,N
1499317095.9,286047001.0,N
1499317115.7,286047000.0,N
1499317135.6,286047003.8,N
1499317155.4,286047001.3,N
1499317175.2,286047000.2,N
1499317195.1,286046999.8,N
1499317196.0,286046999.8,N
